Location: Eimen
(51.8766°N, 9.7806°E)
Time: 14:35:34
(UTC+00:00)

COSMOS 2406 - Pass Details

Date: 23 May 2024
Orbit: 843 x 862 km, 71.0° (Epoch: 12 June)

Event Time Altitude Azimuth Distance (km) Brightness Sun altitude
Exits shadow 01:19:32 15° 231° (SW) 2,143 4.7 -12.7°
Maximum altitude 01:24:12 57° 307° (NW) 1,017 3.7 -12.4°
Drops below altitude 10° 01:29:53 10° 26° (NNE) 2,510 7.2 -11.9°
Sets 01:32:24 0° 30° (NNE) 3,448 8.6 -11.7°
